EUTELSAT KA-SAT 9A      
1 37258U 10069A   19261.05703174  .00000058  00000-0  00000+0 0  9999
2 37258   0.0393 298.1158 0003868 105.8683 342.2343  1.00272421 32119
BREEZE-M R/B            
1 37259U 10069B   19260.60882848 -.00000124  00000-0  00000-0 0  9992
2 37259  23.9044 139.3481 6113611  47.7454  74.6576  2.21630815 70593
BREEZE-M DEB [TANK]     
1 37260U 10069C   19260.40632138  .00000179  00000-0  70568-4 0  9996
2 37260  49.5956 325.9757 5057737  61.2894 340.1630  5.51426748173808